Regional Weather Roundup
Issued by NWS

Home | Current Version | Previous Version | Graphics & Text | Print | Product List | Glossary On
Versions: 1 2 3 4 5 6 7 8 9 10 11 12 13 14 15 16 17 18 19 20 21 22 23 24 25 26 27 28 29 30 31 32 33 34 35 36 37 38 39 40 41 42 43 44 45 46 47 48 49 50
676
ASUS43 KIND 252300
RWRIN

WEATHER ROUNDUP FOR INDIANA
NATIONAL WEATHER SERVICE INDIANAPOLIS IN
700 PM EDT TUE JUL 25 2017

NOTE: "FAIR" INDICATES FEW OR NO CLOUDS BELOW 12,000 FEET WITH NO
SIGNIFICANT WEATHER AND/OR OBSTRUCTIONS TO VISIBILITY.

* - STATION DOES NOT REPORT WEATHER SUCH AS PRECIPITATION OR FOG.

+ - STATION NOT QUALITY CONTROLLED BY THE NATIONAL WEATHER SERVICE.
    USE DATA WITH CAUTION...ESPECIALLY DEWPOINT AND RELATIVE
    HUMIDITY OBSERVATIONS.

INZ001>003-010>013-019-020-260000-
NORTHWEST INDIANA

CITY           SKY/WX    TMP DP  RH WIND       PRES   REMARKS
GARY /AIRPORT/ PTSUNNY   79  52  38 SE10      30.15F
MICHIGAN CITY+ CLOUDY    77  54  44 SE5       30.17F
MONTICELLO +   SUNNY     77  57  49 E6        30.17S
RENSSELAER +   SUNNY     77  54  44 E7        30.16F

$$

LMZ046-743>745-260000-
SOUTHERN LAKE MICHIGAN

STATION/POSITION TIME  TEMP    WIND        PRES    WAVE
                       AIR SEA DIR/SP/G            HT
                 (UTC) (F)     (DEG/KT/KT) (MB)    (FT)
BURNS HARBOR     2240   78     140/  6/ 14 1021.3F
MICHIGAN CITY    2230   77     100/  8/ 11   N/A
5NW MICH CITY    2250   76 75  150/  8/ 10   N/A     1

$$

INZ004-005-014>016-021>024-260000-
NORTH CENTRAL INDIANA

CITY           SKY/WX    TMP DP  RH WIND       PRES   REMARKS
ELKHART        SUNNY     77  54  44 E6        30.18F
GOSHEN         SUNNY     78  52  40 E8        30.18F
SOUTH BEND     SUNNY     78  55  44 E9        30.18F
WARSAW +       CLOUDY    77  55  47 E7        30.19F

$$

INZ006>009-017-018-025>027-260000-
NORTHEAST INDIANA

CITY           SKY/WX    TMP DP  RH WIND       PRES   REMARKS
FORT WAYNE     MOSUNNY   77  58  51 E9        30.19F
KENDALLVILLE + SUNNY     77  56  48 E5        30.21S

$$

INZ028-029-035-036-043>045-051>053-260000-
WEST CENTRAL INDIANA

CITY           SKY/WX    TMP DP  RH WIND       PRES   REMARKS
GREENCASTLE +  SUNNY     79  61  53 SE6       30.16S
LAFAYETTE      SUNNY     78  58  49 E8        30.16S
TERRE HAUTE    MOSUNNY   81  61  50 CALM      30.14S

$$

INZ030>032-037>040-046>048-054>057-064-065-260000-
CENTRAL INDIANA

CITY           SKY/WX    TMP DP  RH WIND       PRES   REMARKS
COLUMBUS       SUNNY     81  55  41 SE5       30.16R
FRANKFORT +    CLOUDY    79  59  51 E7        30.19F
GREENWOOD *+   SUNNY    N/A N/A N/A E6        30.17S
INDIANAPOLIS   MOSUNNY   80  57  45 E7        30.16R
-EAGLE CREEK   SUNNY     80  57  45 E7        30.16R
KOKOMO +       SUNNY     76  60  57 E7        30.19S
MT COMFORT *+  SUNNY     77  59  53 E8        30.18R
SHELBYVILLE    SUNNY     80  62  54 E6        30.16R

$$

INZ033-034-041-042-049-050-058-059-260000-
EAST CENTRAL INDIANA

CITY           SKY/WX    TMP DP  RH WIND       PRES   REMARKS
MUNCIE         SUNNY     78  59  51 SE9       30.18S
RICHMOND +     SUNNY     73  61  64 E6        30.19F

$$

INZ060-061-067>069-081>083-085>088-260000-
SOUTHWEST INDIANA

CITY           SKY/WX    TMP DP  RH WIND       PRES   REMARKS
EVANSVILLE     MOSUNNY   86  69  56 E7        30.09S
HUNTINGBURG *+ SUNNY     83  69  62 NE8       30.11S

$$

INZ062-063-066-070>080-084-089>092-260000-
SOUTH CENTRAL AND SOUTHEAST INDIANA

CITY           SKY/WX    TMP DP  RH WIND       PRES   REMARKS
BLOOMINGTON    SUNNY     82  61  48 E7        30.14S
MADISON *+     SUNNY     81  55  41 E6        30.16S
SEYMOUR +      SUNNY     82  63  51 NE3       30.14S

$$





USA.gov is the U.S. government's official web portal to all federal, state and local government web resources and services.